User: anonymous   Login
Location: Goheenville
(40.9070°N, 79.3720°W)
Time: 20:36:39
(UTC-04:00)
Language:

NOAA 11 - Orbit

View from above orbital plane
View from above orbital plane
View from above satellite
View from above satellite

Ground track
Ground track

The orbit data is extracted from the following two-line orbital elements,

1 19531U 88089A   14297.33542347  .00000123  00000-0  85630-4 0   146
2 19531 098.6711 012.6881 0010127 289.3605 070.6474 14.15102853346004
Epoch (UTC): 24 October 2014 08:03:00
Eccentricity: 0.0010127
inclination: 98.6711°
perigee height: 834 km
apogee height: 849 km
right ascension of ascending node: 12.6881°
argument of perigee: 289.3605°
revolutions per day: 14.15102853
mean anomaly at epoch: 70.6474°
orbit number at epoch: 34600

The dashed part of the orbit path shows where the satellite is in the earth's shadow,  

DLR